Find Starlink 30880

NORAD ID: 58232 Int'l Des: 2023-171 Owner: SPXS Country: US Constellation: starlink operational
LEOCIRCULAR

現在のビュー

3D地球を読み込み中...

About Starlink 30880

Starlink 30880 (NORAD 58232) is a starlink constellation satellite (v2 mini) launched Nov 8, 2023 by SPXS of US. It operates in LEO, CIRCULAR orbit with a mass of 730.00 kg.

Starlink 30880について

説明を読み込み中...

次回通過

Passes for default location (London). Set your location on the main map for personalized predictions.

高度履歴

Loading altitude history...

軌道要素

1 58232U 23171C 26170.13578247 -.00013678 00000-0 -48952-3 0 9995
2 58232 43.0018 71.9632 0001365 261.5091 98.5606 15.27508225145253
Epoch: Jun 19, 2026 • Age: 66 hours

現在のステータス

高度 486.3 km
速度 7.63 km/s
衛星直下点 37.87°N, 119.44°W
打ち上げ日 Nov 8, 2023
運用期間 2.6 years
タイプ internet

技術仕様

分類 Payload
質量 730.00 kg
乾燥質量 700.00 kg
総質量 730.00 kg
長さ 0.30 m
直径 4.10 m
スパン 29.00 m
形状 Box + pan
製造者 SPXS
バスタイプ Starlink V2M
フェーズステータス In Orbit
所有者/国 SPXS/US

Most Searched